sat.trackr.live / text

‹ back to catalog

STARLINK-11371 [DTC]

NORAD 62879 · 2025-024A

PAYLOAD ACTIVE UNKNOWN

§ Identity

Operator
Country
US
Launch date
2025-02-04
Launch site
AFETR
Launch vehicle
Mass (kg)
RCS (m²)

Purposes: comms

External: N2YO · Heavens-Above · Gunter

§ Orbital elements

Epoch: 2026-09-21T05:02:27.560544Z

Period
91.67 min
Inclination
43.0011°
Eccentricity
0.0002481
Mean motion
15.70891402 rev/d
Perigee alt
354.7 km
Apogee alt
358.0 km
Semi-major
6,734.5 km
B*
1.5005e-3
RAAN
83.2171°
Arg perigee
273.1556°
Mean anomaly
86.9027°
Rev number
9,421

§ Raw data

STARLINK-11371 [DTC]1 62879U 25024A   26264.21004121  .00197152  00000+0  15005-2 0  99932 62879  43.0011  83.2171 0002481 273.1556  86.9027 15.70891402 94214

JSON: /api/v1/satellites/62879 · /tle

For live sub-satellite position, see the globe view (requires WebGL).

§ Visibility from observer

Set your observer location to see the next 7 days of passes ≥ 10°. The values pass through the URL so the page stays shareable.

No JS? Fill the form by hand. The geolocation button needs JavaScript.